Location: Dattensoll
(49.9928°N, 9.8954°E)
Time: 17:31:42
(UTC+00:00)

Cosmos 1151 Rocket - Pass Details

Date: 19 May 2025
Orbit: 586 x 607 km, 82.5° (Epoch: 17 June)

Event Time Altitude Azimuth Distance (km) Brightness Sun altitude
Exits shadow 22:19:32 28° 111° (ESE) 1,117 4.0 -18.9°
Maximum altitude 22:20:19 30° 90° (E) 1,065 4.1 -18.9°
Drops below altitude 10° 22:24:01 10° 29° (NNE) 1,921 6.2 -19.1°
Sets 22:26:24 0° 19° (NNE) 2,827 7.4 -19.1°
